FW4455 Weather Reports


time (UTC)temp
C
wind
direction
speed
KPH
gust
KPH
rain 1hr
cm
rain 24hr
cm
rain mn
cm
humidity
%
barometer
mb
20260510104527 18 47 0.0 1.6 0.00 6.40 0.03 99 1013.8
20260510103025 18 47 0.0 1.6 0.00 6.40 0.03 99 1013.7
20260510101520 18 47 0.0 1.6 0.00 6.40 0.03 99 1013.5
20260510100017 18 47 0.0 1.6 0.00 6.40 0.03 99 1013.3
20260510094518 18 47 0.0 1.6 0.03 6.40 0.03 99 1013.1
20260510093015 18 47 0.0 1.6 0.03 6.40 0.03 99 1013.0
20260510091514 18 47 0.0 1.6 0.03 6.40 0.03 99 1013.1
20260510090016 18 47 0.0 1.6 0.00 6.35 0.00 99 1013.1
20260510084508 18 47 0.0 1.6 0.00 6.35 0.00 99 1013.0
20260510083005 18 47 0.0 0.0 0.00 6.35 0.00 99 1013.0
20260510081510 18 47 0.0 1.6 0.00 6.35 0.00 99 1012.9
20260510074559 19 47 0.0 1.6 0.00 6.35 0.00 99 1013.0
20260510073104 19 46 0.0 1.6 0.00 6.35 0.00 99 1013.0
20260510071558 19 46 0.0 1.6 0.00 6.35 0.00 99 1012.8
20260510070053 19 46 0.0 1.6 0.00 6.35 0.00 99 1012.8
20260510064557 19 46 0.0 1.6 0.00 6.35 0.00 99 1012.8
20260510063050 19 49 0.0 1.6 0.00 6.35 0.00 99 1012.7
20260510061549 19 49 0.0 1.6 0.00 6.35 0.00 99 1012.8
20260510060050 19 49 0.0 1.6 0.00 6.35 0.00 99 1012.9
20260510054545 19 49 0.0 1.6 0.00 6.35 0.00 99 1013.0
20260510053055 19 49 0.0 1.6 0.00 6.35 0.00 99 1012.9
20260510051545 19 49 0.0 1.6 0.00 6.35 0.00 99 1012.9
20260510050036 19 6 0.0 1.6 0.00 6.35 0.00 99 1013.1
20260510044546 19 6 0.0 1.6 0.00 6.35 6.35 99 1013.2
20260510043041 19 20 0.0 3.2 0.00 6.35 6.35 99 1013.1
20260510041533 19 124 0.0 4.8 0.00 6.35 6.35 99 1012.6
20260510040039 19 203 0.0 0.0 0.00 6.35 6.35 99 1012.4
20260510034527 19 182 0.0 6.4 0.00 6.35 6.35 99 1012.4
20260510033037 19 153 3.2 12.9 0.00 6.35 6.35 99 1012.4
20260510031523 19 165 1.6 16.1 0.00 6.35 6.35 99 1012.3
20260510030022 19 139 0.0 3.2 0.00 6.35 6.35 99 1012.3
20260510024520 19 142 0.0 3.2 0.00 6.40 6.35 99 1013.1
20260510023017 19 127 0.0 6.4 0.00 6.40 6.35 99 1013.0
20260510021616 18 146 0.0 8.0 0.00 6.40 6.35 99 1012.5
20260510020020 18 201 0.0 0.0 0.00 6.40 6.35 99 1012.6
20260510014512 18 210 0.0 1.6 0.00 6.40 6.35 99 1013.0
20260510013010 18 296 0.0 1.6 0.00 6.40 6.35 99 1013.5
20260510011514 18 296 0.0 0.0 0.00 6.40 6.35 99 1013.5
20260510010007 18 296 0.0 1.6 0.00 6.40 6.35 99 1013.0
20260510004506 18 30 0.0 1.6 0.00 6.40 6.35 99 1012.9
20260510003003 18 30 0.0 1.6 0.00 6.40 6.35 99 1012.8
20260510001501 18 148 0.0 3.2 0.00 6.40 6.35 99 1012.2
20260510000103 18 165 0.0 3.2 0.05 6.40 6.35 99 1011.8
20260509234600 18 150 0.0 1.6 0.10 6.40 6.35 99 1011.4
20260509233102 18 225 0.0 6.4 0.13 6.40 6.35 99 1011.0
20260509231554 18 127 0.0 3.2 0.15 6.40 6.35 99 1011.2
20260509230052 18 165 0.0 0.0 0.15 6.35 6.32 99 1011.4
20260509224548 18 165 0.0 0.0 0.15 6.32 6.27 99 1012.0
20260509223052 18 176 0.0 1.6 0.18 6.30 6.25 99 1012.3
20260509221545 18 95 0.0 1.6 0.20 6.27 6.22 98 1011.9
20260509220042 18 219 0.0 3.2 0.23 6.20 6.15 98 1012.5
20260509214541 18 101 0.0 1.6 0.30 6.35 6.12 98 1011.5
20260509213039 18 163 0.0 6.4 0.25 6.32 6.07 98 1011.7
20260509211537 18 169 0.0 1.6 0.20 6.27 6.02 99 1011.8
20260509210037 18 150 0.0 1.6 0.10 6.17 5.92 98 1012.4
20260509204534 18 167 0.0 1.6 0.05 6.17 5.82 98 1012.6
20260509203032 18 148 0.0 1.6 0.18 6.17 5.82 98 1012.6
20260509201530 18 47 0.0 1.6 0.28 6.17 5.82 98 1012.0
20260509200028 18 57 0.0 6.4 0.41 6.17 5.82 98 1011.7
20260509194524 18 61 1.6 4.8 0.46 7.09 5.77 98 1011.8
20260509193033 18 127 0.0 6.4 0.58 6.96 5.64 98 1012.6
20260509191523 18 131 0.0 4.8 0.53 6.83 5.51 98 1012.5
20260509190022 18 32 0.0 8.0 0.53 6.73 5.41 98 1013.0
20260509184524 18 144 0.0 6.4 0.46 9.86 5.31 99 1013.1
20260509183016 18 165 0.0 0.0 0.23 9.60 5.05 99 1012.9
20260509181514 19 222 3.2 11.3 0.15 9.50 4.95 99 1013.1
20260509180012 19 156 0.0 1.6 0.18 9.42 4.88 99 1012.5
20260509174513 19 5 0.0 3.2 0.15 10.82 4.85 99 1012.3
20260509173007 19 140 0.0 9.7 0.46 10.79 4.83 99 1012.4
20260509171508 19 91 0.0 4.8 0.43 10.77 4.80 99 1012.7
20260509170005 18 157 0.0 1.6 0.33 10.67 4.70 99 1012.4
20260509164502 18 72 0.0 3.2 0.33 10.67 4.70 98 1012.9
20260509163121 18 195 0.0 8.0 0.00 10.34 4.37 99 1013.1
20260509161559 18 118 0.0 3.2 0.03 10.34 4.37 98 1012.8
20260509160057 18 72 0.0 4.8 0.03 10.34 4.37 98 1012.9
20260509154555 18 74 0.0 1.6 0.05 10.34 4.37 98 1013.1
20260509153055 18 219 0.0 1.6 0.08 10.34 4.37 98 1013.1
20260509151552 18 72 0.0 3.2 0.20 10.29 4.34 98 1012.8
20260509150103 18 162 0.0 1.6 0.86 10.29 4.34 98 1012.6
20260509144649 18 153 0.0 3.2 1.42 10.29 4.32 98 1012.7
20260509143049 17 151 0.0 0.0 1.83 10.26 4.29 98 1012.6
20260509141545 17 62 0.0 1.6 1.93 10.08 4.11 98 1012.6
20260509140042 17 176 0.0 3.2 1.37 9.45 3.48 98 1012.9
20260509134543 17 55 0.0 3.2 1.14 8.81 2.84 98 1012.5
20260509133038 17 220 0.0 1.6 1.57 8.41 2.44 98 1013.1
20260509131540 17 75 0.0 1.6 2.06 8.13 2.16 98 1012.8
20260509130036 17 56 1.6 6.4 2.11 8.08 2.11 97 1012.4
20260509124543 17 54 1.6 4.8 1.70 7.67 1.70 97 1012.8
20260509123029 18 6 1.6 9.7 0.84 6.81 0.84 96 1013.2
20260509121527 19 3 6.4 24.1 0.08 6.05 0.08 94 1013.6
20260509120018 21 11 6.4 16.1 0.00 5.97 0.00 98 1012.2
20260509114514 21 145 0.0 1.6 0.00 5.97 0.00 98 1011.1
20260509113013 21 145 0.0 1.6 0.00 5.97 0.00 98 1010.7
20260509111511 20 198 0.0 4.8 0.00 5.97 0.00 98 1010.2
20260509110010 20 175 0.0 1.6 0.00 5.97 0.00 98 1009.8